Time,TemperatureF,DewpointF,PressureIn,WindDirection,WindDirectionDegrees,WindSpeedMPH,WindSpeedGustMPH,Humidity,HourlyPrecipIn,Conditions,Clouds,dailyrainin,SoftwareType,DateUTC
2013-04-23 00:00:00,48.0,32.2,30.30,ESE,107,3.0,4.0,54,0.00,,---,0.00,VWS V13.01,2013-04-23 04:00:00,
2013-04-23 00:01:00,47.9,32.1,30.30,ESE,112,3.0,6.0,54,0.00,,---,0.00,VWS V13.01,2013-04-23 04:01:00,
2013-04-23 00:06:00,47.9,32.1,30.30,South,177,6.0,19.0,54,0.00,,---,0.00,VWS V13.01,2013-04-23 04:06:00,
2013-04-23 00:11:00,47.8,32.0,30.30,SE,135,1.0,19.0,54,0.00,,---,0.00,VWS V13.01,2013-04-23 04:11:00,
2013-04-23 00:16:00,47.7,31.9,30.29,SSW,195,5.0,19.0,54,0.00,,---,0.00,VWS V13.01,2013-04-23 04:16:00,
2013-04-23 00:21:00,47.6,32.2,30.29,ESE,113,9.0,19.0,55,0.00,,---,0.00,VWS V13.01,2013-04-23 04:21:00,
2013-04-23 00:26:00,47.5,32.2,30.29,SE,138,5.0,19.0,55,0.00,,---,0.00,VWS V13.01,2013-04-23 04:26:00,
2013-04-23 00:31:00,47.4,32.5,30.29,SE,138,10.0,13.0,56,0.00,,---,0.00,VWS V13.01,2013-04-23 04:31:00,
2013-04-23 00:36:00,47.3,32.4,30.29,SE,140,8.0,17.0,56,0.00,,---,0.00,VWS V13.01,2013-04-23 04:36:00,
2013-04-23 00:41:00,47.1,32.2,30.29,ENE,75,2.0,17.0,56,0.00,,---,0.00,VWS V13.01,2013-04-23 04:41:00,
2013-04-23 00:46:00,47.0,32.6,30.29,ESE,109,17.0,18.0,57,0.00,,---,0.00,VWS V13.01,2013-04-23 04:46:00,
2013-04-23 00:51:00,46.9,32.5,30.29,South,171,2.0,18.0,57,0.00,,---,0.00,VWS V13.01,2013-04-23 04:51:00,
2013-04-23 00:56:00,46.8,32.4,30.29,SE,134,1.0,18.0,57,0.00,,---,0.00,VWS V13.01,2013-04-23 04:56:00,
2013-04-23 01:01:00,46.7,32.7,30.28,SE,144,5.0,9.0,58,0.00,,---,0.00,VWS V13.01,2013-04-23 05:01:00,
2013-04-23 01:06:00,46.5,32.5,30.28,SSE,158,2.0,15.0,58,0.00,,---,0.00,VWS V13.01,2013-04-23 05:06:00,
2013-04-23 01:11:00,46.4,32.4,30.28,ESE,119,13.0,18.0,58,0.00,,---,0.00,VWS V13.01,2013-04-23 05:11:00,
2013-04-23 01:16:00,46.3,32.3,30.28,SE,130,5.0,20.0,58,0.00,,---,0.00,VWS V13.01,2013-04-23 05:16:00,
2013-04-23 01:21:00,46.3,32.8,30.28,SE,146,12.0,20.0,59,0.00,,---,0.00,VWS V13.01,2013-04-23 05:21:00,
2013-04-23 01:26:00,46.2,32.7,30.28,East,86,5.0,20.0,59,0.00,,---,0.00,VWS V13.01,2013-04-23 05:26:00,
2013-04-23 01:31:00,46.0,32.5,30.28,SE,132,15.0,15.0,59,0.00,,---,0.00,VWS V13.01,2013-04-23 05:31:00,
2013-04-23 01:36:00,46.0,32.9,30.28,ESE,117,2.0,18.0,60,0.00,,---,0.00,VWS V13.01,2013-04-23 05:36:00,
2013-04-23 01:41:00,45.8,32.7,30.28,ESE,119,13.0,18.0,60,0.00,,---,0.00,VWS V13.01,2013-04-23 05:41:00,
2013-04-23 01:46:00,45.6,32.5,30.28,South,175,14.0,22.0,60,0.00,,---,0.00,VWS V13.01,2013-04-23 05:46:00,
2013-04-23 01:51:00,45.6,32.5,30.27,ESE,122,10.0,22.0,60,0.00,,---,0.00,VWS V13.01,2013-04-23 05:51:00,
2013-04-23 01:56:00,45.5,32.8,30.27,East,94,6.0,22.0,61,0.00,,---,0.00,VWS V13.01,2013-04-23 05:56:00,
2013-04-23 02:01:00,45.4,32.8,30.27,SE,127,3.0,11.0,61,0.00,,---,0.00,VWS V13.01,2013-04-23 06:01:00,
2013-04-23 02:06:00,45.2,32.6,30.27,ESE,119,3.0,23.0,61,0.00,,---,0.00,VWS V13.01,2013-04-23 06:06:00,
2013-04-23 02:11:00,45.1,32.9,30.27,SE,136,7.0,23.0,62,0.00,,---,0.00,VWS V13.01,2013-04-23 06:11:00,
2013-04-23 02:16:00,44.9,32.7,30.27,SE,136,9.0,23.0,62,0.00,,---,0.00,VWS V13.01,2013-04-23 06:16:00,
2013-04-23 02:21:00,44.8,32.6,30.27,ESE,114,7.0,23.0,62,0.00,,---,0.00,VWS V13.01,2013-04-23 06:21:00,
2013-04-23 02:26:00,44.7,32.9,30.27,SE,132,12.0,23.0,63,0.00,,---,0.00,VWS V13.01,2013-04-23 06:26:00,
2013-04-23 02:31:00,44.6,32.8,30.27,SE,134,5.0,14.0,63,0.00,,---,0.00,VWS V13.01,2013-04-23 06:31:00,
2013-04-23 02:36:00,44.5,32.7,30.27,SE,146,6.0,16.0,63,0.00,,---,0.00,VWS V13.01,2013-04-23 06:36:00,
2013-04-23 02:41:00,44.3,32.9,30.27,ESE,123,4.0,18.0,64,0.00,,---,0.00,VWS V13.01,2013-04-23 06:41:00,
2013-04-23 02:46:00,44.2,32.8,30.26,East,98,8.0,19.0,64,0.00,,---,0.00,VWS V13.01,2013-04-23 06:46:00,
2013-04-23 02:51:00,44.1,32.7,30.27,SE,135,3.0,19.0,64,0.00,,---,0.00,VWS V13.01,2013-04-23 06:51:00,
2013-04-23 02:56:00,44.0,32.6,30.27,SSE,153,5.0,19.0,64,0.00,,---,0.00,VWS V13.01,2013-04-23 06:56:00,
2013-04-23 03:01:00,43.9,32.9,30.27,SE,125,11.0,11.0,65,0.00,,---,0.00,VWS V13.01,2013-04-23 07:01:00,
2013-04-23 03:06:00,43.8,32.8,30.27,SSW,200,2.0,14.0,65,0.00,,---,0.00,VWS V13.01,2013-04-23 07:06:00,
2013-04-23 03:11:00,43.6,32.6,30.26,South,170,3.0,17.0,65,0.00,,---,0.00,VWS V13.01,2013-04-23 07:11:00,
2013-04-23 03:16:00,43.6,32.6,30.26,WSW,257,1.0,17.0,65,0.00,,---,0.00,VWS V13.01,2013-04-23 07:16:00,
2013-04-23 03:21:00,43.5,32.9,30.26,ENE,57,2.0,17.0,66,0.00,,---,0.00,VWS V13.01,2013-04-23 07:21:00,
2013-04-23 03:26:00,43.4,32.8,30.26,SE,143,1.0,17.0,66,0.00,,---,0.00,VWS V13.01,2013-04-23 07:26:00,
2013-04-23 03:31:00,43.3,32.7,30.26,East,92,2.0,13.0,66,0.00,,---,0.00,VWS V13.01,2013-04-23 07:31:00,
2013-04-23 03:36:00,43.2,32.6,30.26,ESE,107,5.0,13.0,66,0.00,,---,0.00,VWS V13.01,2013-04-23 07:36:00,
2013-04-23 03:41:00,43.2,32.6,30.27,NE,37,3.0,14.0,66,0.00,,---,0.00,VWS V13.01,2013-04-23 07:41:00,
2013-04-23 03:46:00,43.0,32.8,30.26,ESE,111,4.0,14.0,67,0.00,,---,0.00,VWS V13.01,2013-04-23 07:46:00,
2013-04-23 03:51:00,42.9,32.7,30.26,SSE,154,10.0,14.0,67,0.00,,---,0.00,VWS V13.01,2013-04-23 07:51:00,
2013-04-23 03:56:00,42.9,32.7,30.26,ESE,105,3.0,15.0,67,0.00,,---,0.00,VWS V13.01,2013-04-23 07:56:00,
2013-04-23 04:01:00,42.8,32.6,30.27,SSW,196,7.0,13.0,67,0.00,,---,0.00,VWS V13.01,2013-04-23 08:01:00,
2013-04-23 04:06:00,42.7,32.9,30.26,SE,146,3.0,13.0,68,0.00,,---,0.00,VWS V13.01,2013-04-23 08:06:00,
2013-04-23 04:11:00,42.6,32.8,30.26,SSW,200,0.0,13.0,68,0.00,,---,0.00,VWS V13.01,2013-04-23 08:11:00,
2013-04-23 04:16:00,42.5,32.7,30.26,SE,138,3.0,13.0,68,0.00,,---,0.00,VWS V13.01,2013-04-23 08:16:00,
2013-04-23 04:21:00,42.4,32.6,30.26,SSW,201,3.0,13.0,68,0.00,,---,0.00,VWS V13.01,2013-04-23 08:21:00,
2013-04-23 04:26:00,42.3,32.5,30.26,SSE,148,3.0,13.0,68,0.00,,---,0.00,VWS V13.01,2013-04-23 08:26:00,
2013-04-23 04:31:00,42.2,32.8,30.26,SE,139,3.0,6.0,69,0.00,,---,0.00,VWS V13.01,2013-04-23 08:31:00,
2013-04-23 04:36:00,42.1,32.7,30.26,South,176,4.0,10.0,69,0.00,,---,0.00,VWS V13.01,2013-04-23 08:36:00,
2013-04-23 04:41:00,42.1,32.7,30.26,South,185,4.0,12.0,69,0.00,,---,0.00,VWS V13.01,2013-04-23 08:41:00,
2013-04-23 04:46:00,42.0,32.6,30.26,SE,136,7.0,12.0,69,0.00,,---,0.00,VWS V13.01,2013-04-23 08:46:00,
2013-04-23 04:51:00,41.9,32.5,30.26,SE,142,2.0,12.0,69,0.00,,---,0.00,VWS V13.01,2013-04-23 08:51:00,
2013-04-23 04:56:00,41.8,32.8,30.26,ESE,117,2.0,12.0,70,0.00,,---,0.00,VWS V13.01,2013-04-23 08:56:00,
2013-04-23 05:01:00,41.7,32.7,30.26,South,180,3.0,5.0,70,0.00,,---,0.00,VWS V13.01,2013-04-23 09:01:00,
2013-04-23 05:06:00,41.6,32.6,30.26,SSE,154,3.0,8.0,70,0.00,,---,0.00,VWS V13.01,2013-04-23 09:06:00,
2013-04-23 05:11:00,41.5,32.5,30.26,ESE,122,2.0,13.0,70,0.00,,---,0.00,VWS V13.01,2013-04-23 09:11:00,
2013-04-23 05:16:00,41.5,32.5,30.25,South,188,3.0,13.0,70,0.00,,---,0.00,VWS V13.01,2013-04-23 09:16:00,
2013-04-23 05:21:00,41.4,32.7,30.25,SE,138,12.0,13.0,71,0.00,,---,0.00,VWS V13.01,2013-04-23 09:21:00,
2013-04-23 05:26:00,41.3,32.6,30.25,South,190,2.0,13.0,71,0.00,,---,0.00,VWS V13.01,2013-04-23 09:26:00,
2013-04-23 05:31:00,41.3,32.6,30.25,East,86,1.0,3.0,71,0.00,,---,0.00,VWS V13.01,2013-04-23 09:31:00,
2013-04-23 05:36:00,41.2,32.5,30.25,SE,136,2.0,13.0,71,0.00,,---,0.00,VWS V13.01,2013-04-23 09:36:00,
2013-04-23 05:41:00,41.1,32.4,30.25,SE,130,4.0,13.0,71,0.00,,---,0.00,VWS V13.01,2013-04-23 09:41:00,
2013-04-23 05:46:00,41.1,32.4,30.25,South,184,2.0,13.0,71,0.00,,---,0.00,VWS V13.01,2013-04-23 09:46:00,
2013-04-23 05:51:00,41.1,32.4,30.25,SSE,163,4.0,13.0,71,0.00,,---,0.00,VWS V13.01,2013-04-23 09:51:00,
2013-04-23 05:56:00,41.0,32.7,30.25,SE,129,5.0,13.0,72,0.00,,---,0.00,VWS V13.01,2013-04-23 09:56:00,
2013-04-23 06:01:00,41.0,32.3,30.25,SE,145,6.0,8.0,71,0.00,,---,0.00,VWS V13.01,2013-04-23 10:01:00,
2013-04-23 06:06:00,40.9,32.6,30.25,SW,220,2.0,8.0,72,0.00,,---,0.00,VWS V13.01,2013-04-23 10:06:00,
2013-04-23 06:11:00,40.9,32.6,30.25,ESE,121,4.0,12.0,72,0.00,,---,0.00,VWS V13.01,2013-04-23 10:11:00,
2013-04-23 06:16:00,40.8,32.5,30.25,SSE,147,3.0,12.0,72,0.00,,---,0.00,VWS V13.01,2013-04-23 10:16:00,
2013-04-23 06:21:00,40.7,32.4,30.25,East,99,8.0,12.0,72,0.00,,---,0.00,VWS V13.01,2013-04-23 10:21:00,
2013-04-23 06:26:00,40.7,32.4,30.25,SE,143,4.0,12.0,72,0.00,,---,0.00,VWS V13.01,2013-04-23 10:26:00,
2013-04-23 06:31:00,40.7,32.4,30.25,ESE,119,0.0,2.0,72,0.00,,---,0.00,VWS V13.01,2013-04-23 10:31:00,
2013-04-23 06:36:00,40.7,32.4,30.25,East,96,5.0,8.0,72,0.00,,---,0.00,VWS V13.01,2013-04-23 10:36:00,
2013-04-23 06:41:00,40.8,32.5,30.25,SSE,147,0.0,8.0,72,0.00,,---,0.00,VWS V13.01,2013-04-23 10:41:00,
2013-04-23 06:46:00,40.7,32.4,30.25,SE,134,3.0,8.0,72,0.00,,---,0.00,VWS V13.01,2013-04-23 10:46:00,
2013-04-23 06:51:00,40.7,32.4,30.25,SE,145,4.0,8.0,72,0.00,,---,0.00,VWS V13.01,2013-04-23 10:51:00,
2013-04-23 06:56:00,40.7,32.4,30.25,East,101,5.0,8.0,72,0.00,,---,0.00,VWS V13.01,2013-04-23 10:56:00,
2013-04-23 07:01:00,40.7,32.4,30.25,SSE,157,3.0,4.0,72,0.00,,---,0.00,VWS V13.01,2013-04-23 11:01:00,
2013-04-23 07:06:00,40.7,32.7,30.25,ESE,117,3.0,4.0,73,0.00,,---,0.00,VWS V13.01,2013-04-23 11:06:00,
2013-04-23 07:11:00,41.0,33.0,30.25,SSE,154,2.0,9.0,73,0.00,,---,0.00,VWS V13.01,2013-04-23 11:11:00,
2013-04-23 07:16:00,41.4,33.1,30.25,East,101,0.0,9.0,72,0.00,,---,0.00,VWS V13.01,2013-04-23 11:16:00,
2013-04-23 07:21:00,41.8,33.1,30.25,East,87,2.0,9.0,71,0.00,,---,0.00,VWS V13.01,2013-04-23 11:21:00,
2013-04-23 07:26:00,42.2,33.5,30.25,SE,141,3.0,9.0,71,0.00,,---,0.00,VWS V13.01,2013-04-23 11:26:00,
2013-04-23 07:31:00,42.5,33.4,30.25,SSE,147,4.0,9.0,70,0.00,,---,0.00,VWS V13.01,2013-04-23 11:31:00,
2013-04-23 07:36:00,43.0,33.9,30.25,SE,138,4.0,9.0,70,0.00,,---,0.00,VWS V13.01,2013-04-23 11:36:00,
2013-04-23 07:41:00,43.3,33.8,30.25,ESE,118,2.0,9.0,69,0.00,,---,0.00,VWS V13.01,2013-04-23 11:41:00,
2013-04-23 07:46:00,43.7,34.2,30.25,SE,128,2.0,9.0,69,0.00,,---,0.00,VWS V13.01,2013-04-23 11:46:00,
2013-04-23 07:51:00,44.1,34.2,30.25,SE,124,0.0,9.0,68,0.00,,---,0.00,VWS V13.01,2013-04-23 11:51:00,
2013-04-23 07:56:00,44.5,34.2,30.25,ESE,111,3.0,9.0,67,0.00,,---,0.00,VWS V13.01,2013-04-23 11:56:00,
2013-04-23 08:01:00,44.7,34.0,30.25,ESE,113,4.0,6.0,66,0.00,,---,0.00,VWS V13.01,2013-04-23 12:01:00,
2013-04-23 08:06:00,45.1,34.4,30.25,SE,129,1.0,6.0,66,0.00,,---,0.00,VWS V13.01,2013-04-23 12:06:00,
2013-04-23 08:11:00,45.6,34.9,30.24,East,93,0.0,6.0,66,0.00,,---,0.00,VWS V13.01,2013-04-23 12:11:00,
2013-04-23 08:16:00,46.0,34.5,30.24,SE,130,3.0,8.0,64,0.00,,---,0.00,VWS V13.01,2013-04-23 12:16:00,
2013-04-23 08:21:00,46.2,34.7,30.25,SSE,151,1.0,8.0,64,0.00,,---,0.00,VWS V13.01,2013-04-23 12:21:00,
2013-04-23 08:26:00,46.5,35.0,30.24,East,101,0.0,8.0,64,0.00,,---,0.00,VWS V13.01,2013-04-23 12:26:00,
2013-04-23 08:31:00,46.8,34.9,30.24,SE,138,3.0,7.0,63,0.00,,---,0.00,VWS V13.01,2013-04-23 12:31:00,
2013-04-23 08:36:00,47.1,35.2,30.24,SE,141,5.0,7.0,63,0.00,,---,0.00,VWS V13.01,2013-04-23 12:36:00,
2013-04-23 08:41:00,47.5,35.1,30.23,ESE,110,2.0,8.0,62,0.00,,---,0.00,VWS V13.01,2013-04-23 12:41:00,
2013-04-23 08:46:00,47.9,35.5,30.23,ESE,102,2.0,8.0,62,0.00,,---,0.00,VWS V13.01,2013-04-23 12:46:00,
2013-04-23 08:51:00,48.6,36.2,30.23,East,101,6.0,8.0,62,0.00,,---,0.00,VWS V13.01,2013-04-23 12:51:00,
2013-04-23 08:56:00,48.9,35.6,30.22,East,98,2.0,8.0,60,0.00,,---,0.00,VWS V13.01,2013-04-23 12:56:00,
2013-04-23 09:01:00,48.9,35.6,30.22,SSE,155,2.0,6.0,60,0.00,,---,0.00,VWS V13.01,2013-04-23 13:01:00,
2013-04-23 09:05:00,49.2,35.9,30.22,ESE,121,2.0,8.0,60,0.00,,---,0.00,VWS V13.01,2013-04-23 13:05:00,
2013-04-23 09:10:00,49.4,35.7,30.21,ESE,109,4.0,8.0,59,0.00,,---,0.00,VWS V13.01,2013-04-23 13:10:00,
2013-04-23 09:15:00,49.6,35.9,30.21,SE,126,3.0,10.0,59,0.00,,---,0.00,VWS V13.01,2013-04-23 13:15:00,
2013-04-23 09:20:00,50.2,36.0,30.21,ENE,67,7.0,10.0,58,0.00,,---,0.00,VWS V13.01,2013-04-23 13:20:00,
2013-04-23 09:25:00,50.5,36.7,30.20,East,89,6.0,10.0,59,0.00,,---,0.00,VWS V13.01,2013-04-23 13:25:00,
2013-04-23 09:30:00,50.8,36.1,30.21,SE,136,4.0,4.0,57,0.00,,---,0.00,VWS V13.01,2013-04-23 13:30:00,
2013-04-23 09:35:00,51.3,35.7,30.21,East,99,1.0,8.0,55,0.00,,---,0.00,VWS V13.01,2013-04-23 13:35:00,
2013-04-23 09:40:00,51.5,36.3,30.21,SSE,154,5.0,8.0,56,0.00,,---,0.00,VWS V13.01,2013-04-23 13:40:00,
2013-04-23 09:45:00,51.9,36.7,30.21,ESE,110,5.0,8.0,56,0.00,,---,0.00,VWS V13.01,2013-04-23 13:45:00,
2013-04-23 09:50:00,52.4,37.6,30.20,East,89,5.0,8.0,57,0.00,,---,0.00,VWS V13.01,2013-04-23 13:50:00,
2013-04-23 09:55:00,53.0,37.7,30.20,SE,133,5.0,8.0,56,0.00,,---,0.00,VWS V13.01,2013-04-23 13:55:00,
2013-04-23 10:00:00,53.7,37.0,30.20,ESE,107,3.0,7.0,53,0.00,,---,0.00,VWS V13.01,2013-04-23 14:00:00,
2013-04-23 10:05:00,54.2,37.5,30.20,ENE,64,4.0,7.0,53,0.00,,---,0.00,VWS V13.01,2013-04-23 14:05:00,
2013-04-23 10:10:00,54.8,37.5,30.20,East,94,0.0,7.0,52,0.00,,---,0.00,VWS V13.01,2013-04-23 14:10:00,
2013-04-23 10:16:00,55.5,39.1,30.20,SE,134,3.0,7.0,54,0.00,,---,0.00,VWS V13.01,2013-04-23 14:16:00,
2013-04-23 10:20:00,56.0,38.6,30.20,East,101,3.0,7.0,52,0.00,,---,0.00,VWS V13.01,2013-04-23 14:20:00,
2013-04-23 10:25:00,56.3,37.9,30.21,ESE,104,1.0,7.0,50,0.00,,---,0.00,VWS V13.01,2013-04-23 14:25:00,
2013-04-23 10:30:00,56.9,38.5,30.20,East,98,2.0,4.0,50,0.00,,---,0.00,VWS V13.01,2013-04-23 14:30:00,
2013-04-23 10:35:00,57.3,38.3,30.20,East,88,2.0,4.0,49,0.00,,---,0.00,VWS V13.01,2013-04-23 14:35:00,
2013-04-23 10:40:00,57.7,37.1,30.20,SSW,202,2.0,5.0,46,0.00,,---,0.00,VWS V13.01,2013-04-23 14:40:00,
2013-04-23 10:45:00,58.0,37.9,30.20,SW,218,0.0,6.0,47,0.00,,---,0.00,VWS V13.01,2013-04-23 14:45:00,
2013-04-23 10:50:00,58.2,38.6,30.20,WSW,250,2.0,6.0,48,0.00,,---,0.00,VWS V13.01,2013-04-23 14:50:00,
2013-04-23 10:55:00,58.8,40.2,30.20,SW,233,1.0,6.0,50,0.00,,---,0.00,VWS V13.01,2013-04-23 14:55:00,
2013-04-23 11:00:00,59.5,40.3,30.20,West,269,3.0,4.0,49,0.00,,---,0.00,VWS V13.01,2013-04-23 15:00:00,
2013-04-23 11:05:00,59.8,38.4,30.20,SW,229,1.0,5.0,45,0.00,,---,0.00,VWS V13.01,2013-04-23 15:05:00,
2013-04-23 11:10:00,60.1,38.7,30.19,SW,227,4.0,5.0,45,0.00,,---,0.00,VWS V13.01,2013-04-23 15:10:00,
2013-04-23 11:15:00,60.2,37.0,30.19,SW,232,1.0,5.0,42,0.00,,---,0.00,VWS V13.01,2013-04-23 15:15:00,
2013-04-23 11:20:00,60.3,38.3,30.19,WSW,250,4.0,5.0,44,0.00,,---,0.00,VWS V13.01,2013-04-23 15:20:00,
2013-04-23 11:25:00,60.5,37.3,30.18,West,260,1.0,5.0,42,0.00,,---,0.00,VWS V13.01,2013-04-23 15:25:00,
2013-04-23 11:30:00,60.7,38.7,30.19,SW,234,2.0,5.0,44,0.00,,---,0.00,VWS V13.01,2013-04-23 15:30:00,
2013-04-23 11:36:00,60.9,36.4,30.19,WSW,254,3.0,6.0,40,0.00,,---,0.00,VWS V13.01,2013-04-23 15:36:00,
2013-04-23 11:41:00,61.1,38.5,30.20,West,262,6.0,9.0,43,0.00,,---,0.00,VWS V13.01,2013-04-23 15:41:00,
2013-04-23 11:45:00,61.3,37.4,30.20,West,277,3.0,9.0,41,0.00,,---,0.00,VWS V13.01,2013-04-23 15:45:00,
2013-04-23 11:50:00,61.2,38.5,30.20,SSW,207,1.0,9.0,43,0.00,,---,0.00,VWS V13.01,2013-04-23 15:50:00,
2013-04-23 11:55:00,61.6,37.7,30.19,SSE,164,3.0,9.0,41,0.00,,---,0.00,VWS V13.01,2013-04-23 15:55:00,
2013-04-23 12:00:00,62.1,40.0,30.19,WNW,282,2.0,7.0,44,0.00,,---,0.00,VWS V13.01,2013-04-23 16:00:00,
2013-04-23 12:05:00,62.3,36.4,30.20,SW,231,3.0,9.0,38,0.00,,---,0.00,VWS V13.01,2013-04-23 16:05:00,
2013-04-23 12:10:00,62.5,39.1,30.20,South,181,0.0,9.0,42,0.00,,---,0.00,VWS V13.01,2013-04-23 16:10:00,
2013-04-23 12:15:00,62.9,38.2,30.20,WSW,253,2.0,9.0,40,0.00,,---,0.00,VWS V13.01,2013-04-23 16:15:00,
2013-04-23 12:20:00,63.1,39.0,30.19,WSW,241,4.0,9.0,41,0.00,,---,0.00,VWS V13.01,2013-04-23 16:20:00,
2013-04-23 12:25:00,63.5,36.1,30.19,South,191,3.0,9.0,36,0.00,,---,0.00,VWS V13.01,2013-04-23 16:25:00,
2013-04-23 12:30:00,63.9,38.5,30.18,SSW,207,6.0,6.0,39,0.00,,---,0.00,VWS V13.01,2013-04-23 16:30:00,
2013-04-23 12:35:00,64.1,38.0,30.18,WSW,242,2.0,6.0,38,0.00,,---,0.00,VWS V13.01,2013-04-23 16:35:00,
2013-04-23 12:40:00,64.4,35.5,30.18,South,177,0.0,6.0,34,0.00,,---,0.00,VWS V13.01,2013-04-23 16:40:00,
2013-04-23 12:45:00,64.5,37.7,30.18,WSW,254,1.0,6.0,37,0.00,,---,0.00,VWS V13.01,2013-04-23 16:45:00,
2013-04-23 12:50:00,64.6,37.8,30.18,SSW,212,7.0,10.0,37,0.00,,---,0.00,VWS V13.01,2013-04-23 16:50:00,
2013-04-23 12:55:00,64.8,37.2,30.17,SSE,153,4.0,10.0,36,0.00,,---,0.00,VWS V13.01,2013-04-23 16:55:00,
2013-04-23 13:00:00,64.9,38.0,30.17,SW,235,7.0,7.0,37,0.00,,---,0.00,VWS V13.01,2013-04-23 17:00:00,
2013-04-23 13:05:00,65.0,39.5,30.17,WNW,291,6.0,10.0,39,0.00,,---,0.00,VWS V13.01,2013-04-23 17:05:00,
2013-04-23 13:10:00,65.2,36.2,30.17,SW,218,6.0,10.0,34,0.00,,---,0.00,VWS V13.01,2013-04-23 17:10:00,
2013-04-23 13:15:00,65.4,38.5,30.16,SSW,208,3.0,10.0,37,0.00,,---,0.00,VWS V13.01,2013-04-23 17:15:00,
2013-04-23 13:20:00,65.8,38.1,30.16,West,265,2.0,10.0,36,0.00,,---,0.00,VWS V13.01,2013-04-23 17:20:00,
2013-04-23 13:25:00,65.9,36.0,30.16,West,275,0.0,10.0,33,0.00,,---,0.00,VWS V13.01,2013-04-23 17:25:00,
2013-04-23 13:30:00,66.1,35.4,30.15,SSW,201,1.0,1.0,32,0.00,,---,0.00,VWS V13.01,2013-04-23 17:30:00,
2013-04-23 13:35:00,66.1,39.1,30.15,NW,321,1.0,4.0,37,0.00,,---,0.00,VWS V13.01,2013-04-23 17:35:00,
2013-04-23 13:40:00,66.6,38.8,30.15,SW,226,5.0,8.0,36,0.00,,---,0.00,VWS V13.01,2013-04-23 17:40:00,
2013-04-23 13:45:00,66.8,38.3,30.14,SSE,167,3.0,8.0,35,0.00,,---,0.00,VWS V13.01,2013-04-23 17:45:00,
2013-04-23 13:50:00,67.2,39.4,30.14,West,275,3.0,8.0,36,0.00,,---,0.00,VWS V13.01,2013-04-23 17:50:00,
2013-04-23 13:55:00,67.3,36.5,30.13,WNW,294,1.0,8.0,32,0.00,,---,0.00,VWS V13.01,2013-04-23 17:55:00,
2013-04-23 14:00:00,67.5,36.6,30.13,WSW,246,1.0,2.0,32,0.00,,---,0.00,VWS V13.01,2013-04-23 18:00:00,
2013-04-23 14:05:00,67.5,38.2,30.12,South,175,4.0,6.0,34,0.00,,---,0.00,VWS V13.01,2013-04-23 18:05:00,
2013-04-23 14:10:00,67.9,40.0,30.12,South,182,1.0,6.0,36,0.00,,---,0.00,VWS V13.01,2013-04-23 18:10:00,
2013-04-23 14:15:00,68.2,37.2,30.12,SE,138,5.0,8.0,32,0.00,,---,0.00,VWS V13.01,2013-04-23 18:15:00,
2013-04-23 14:20:00,68.2,35.6,30.12,SE,126,0.0,8.0,30,0.00,,---,0.00,VWS V13.01,2013-04-23 18:20:00,
2013-04-23 14:25:00,68.2,35.6,30.12,East,93,3.0,8.0,30,0.00,,---,0.00,VWS V13.01,2013-04-23 18:25:00,
2013-04-23 14:30:00,67.8,34.4,30.11,SSE,154,5.0,5.0,29,0.00,,---,0.00,VWS V13.01,2013-04-23 18:30:00,
2013-04-23 14:35:00,67.7,36.0,30.11,ENE,77,0.0,5.0,31,0.00,,---,0.00,VWS V13.01,2013-04-23 18:35:00,
2013-04-23 14:40:00,68.1,35.5,30.11,NNW,340,3.0,5.0,30,0.00,,---,0.00,VWS V13.01,2013-04-23 18:40:00,
2013-04-23 14:45:00,68.2,37.2,30.11,WSW,240,4.0,7.0,32,0.00,,---,0.00,VWS V13.01,2013-04-23 18:45:00,
2013-04-23 14:50:00,68.6,37.6,30.10,WSW,243,4.0,7.0,32,0.00,,---,0.00,VWS V13.01,2013-04-23 18:50:00,
2013-04-23 14:55:00,69.0,38.7,30.10,NNW,327,2.0,9.0,33,0.00,,---,0.00,VWS V13.01,2013-04-23 18:55:00,
2013-04-23 15:00:00,69.3,37.4,30.09,WNW,300,3.0,4.0,31,0.00,,---,0.00,VWS V13.01,2013-04-23 19:00:00,
2013-04-23 15:05:00,69.2,32.9,30.09,NNW,343,3.0,6.0,26,0.00,,---,0.00,VWS V13.01,2013-04-23 19:05:00,
2013-04-23 15:10:00,69.0,35.5,30.09,North,5,4.0,7.0,29,0.00,,---,0.00,VWS V13.01,2013-04-23 19:10:00,
2013-04-23 15:15:00,69.0,34.6,30.08,West,275,4.0,7.0,28,0.00,,---,0.00,VWS V13.01,2013-04-23 19:15:00,
2013-04-23 15:20:00,69.5,39.9,30.08,WSW,238,6.0,8.0,34,0.00,,---,0.00,VWS V13.01,2013-04-23 19:20:00,
2013-04-23 15:26:00,69.8,36.1,30.08,West,272,1.0,8.0,29,0.00,,---,0.00,VWS V13.01,2013-04-23 19:26:00,
2013-04-23 15:30:00,69.9,34.4,30.07,SSE,155,0.0,3.0,27,0.00,,---,0.00,VWS V13.01,2013-04-23 19:30:00,
2013-04-23 15:35:00,69.9,37.1,30.07,NNW,327,2.0,4.0,30,0.00,,---,0.00,VWS V13.01,2013-04-23 19:35:00,
2013-04-23 15:40:00,70.5,37.6,30.06,SSW,209,3.0,5.0,30,0.00,,---,0.00,VWS V13.01,2013-04-23 19:40:00,
2013-04-23 15:46:00,70.9,35.3,30.06,WSW,256,3.0,7.0,27,0.00,,---,0.00,VWS V13.01,2013-04-23 19:46:00,
2013-04-23 15:51:00,71.1,36.4,30.06,SW,230,4.0,7.0,28,0.00,,---,0.00,VWS V13.01,2013-04-23 19:51:00,
2013-04-23 15:56:00,71.3,36.5,30.06,SW,220,3.0,9.0,28,0.00,,---,0.00,VWS V13.01,2013-04-23 19:56:00,
2013-04-23 16:01:00,71.2,34.6,30.06,SSW,207,3.0,7.0,26,0.00,,---,0.00,VWS V13.01,2013-04-23 20:01:00,
2013-04-23 16:06:00,71.2,33.6,30.06,NW,311,3.0,7.0,25,0.00,,---,0.00,VWS V13.01,2013-04-23 20:06:00,
2013-04-23 16:11:00,71.0,38.0,30.06,WSW,245,4.0,7.0,30,0.00,,---,0.00,VWS V13.01,2013-04-23 20:11:00,
2013-04-23 16:16:00,71.2,38.2,30.05,West,271,5.0,7.0,30,0.00,,---,0.00,VWS V13.01,2013-04-23 20:16:00,
2013-04-23 16:21:00,71.3,36.5,30.05,NW,321,1.0,7.0,28,0.00,,---,0.00,VWS V13.01,2013-04-23 20:21:00,
2013-04-23 16:26:00,71.5,36.7,30.05,NNW,329,2.0,7.0,28,0.00,,---,0.00,VWS V13.01,2013-04-23 20:26:00,
2013-04-23 16:31:00,71.6,40.2,30.05,West,261,7.0,7.0,32,0.00,,---,0.00,VWS V13.01,2013-04-23 20:31:00,
2013-04-23 16:36:00,71.8,35.1,30.05,WNW,286,3.0,7.0,26,0.00,,---,0.00,VWS V13.01,2013-04-23 20:36:00,
2013-04-23 16:41:00,71.9,37.1,30.04,SW,221,4.0,7.0,28,0.00,,---,0.00,VWS V13.01,2013-04-23 20:41:00,
2013-04-23 16:46:00,72.1,36.3,30.04,SE,139,0.0,7.0,27,0.00,,---,0.00,VWS V13.01,2013-04-23 20:46:00,
2013-04-23 16:51:00,72.3,37.4,30.04,WSW,239,4.0,7.0,28,0.00,,---,0.00,VWS V13.01,2013-04-23 20:51:00,
2013-04-23 16:56:00,72.4,37.5,30.04,WNW,292,3.0,7.0,28,0.00,,---,0.00,VWS V13.01,2013-04-23 20:56:00,
2013-04-23 17:01:00,72.6,38.5,30.04,WSW,240,2.0,4.0,29,0.00,,---,0.00,VWS V13.01,2013-04-23 21:01:00,
2013-04-23 17:06:00,72.6,35.8,30.04,WSW,240,4.0,10.0,26,0.00,,---,0.00,VWS V13.01,2013-04-23 21:06:00,
2013-04-23 17:11:00,72.2,36.4,30.04,WSW,257,3.0,10.0,27,0.00,,---,0.00,VWS V13.01,2013-04-23 21:11:00,
2013-04-23 17:16:00,72.0,35.3,30.04,SW,232,4.0,10.0,26,0.00,,---,0.00,VWS V13.01,2013-04-23 21:16:00,
2013-04-23 17:21:00,71.7,36.0,30.04,SW,223,3.0,10.0,27,0.00,,---,0.00,VWS V13.01,2013-04-23 21:21:00,
2013-04-23 17:26:00,71.5,35.8,30.04,West,265,6.0,10.0,27,0.00,,---,0.00,VWS V13.01,2013-04-23 21:26:00,
2013-04-23 17:31:00,71.3,36.5,30.03,West,277,0.0,1.0,28,0.00,,---,0.00,VWS V13.01,2013-04-23 21:31:00,
2013-04-23 17:36:00,71.3,35.6,30.03,SW,236,4.0,4.0,27,0.00,,---,0.00,VWS V13.01,2013-04-23 21:36:00,
2013-04-23 17:41:00,71.0,35.4,30.03,SW,223,2.0,6.0,27,0.00,,---,0.00,VWS V13.01,2013-04-23 21:41:00,
2013-04-23 17:46:00,70.7,35.1,30.03,SW,235,0.0,6.0,27,0.00,,---,0.00,VWS V13.01,2013-04-23 21:46:00,
2013-04-23 17:51:00,70.6,34.1,30.03,WNW,286,2.0,6.0,26,0.00,,---,0.00,VWS V13.01,2013-04-23 21:51:00,
2013-04-23 17:56:00,70.4,36.7,30.02,WNW,286,1.0,6.0,29,0.00,,---,0.00,VWS V13.01,2013-04-23 21:56:00,
2013-04-23 18:01:00,70.4,35.8,30.02,WSW,241,0.0,2.0,28,0.00,,---,0.00,VWS V13.01,2013-04-23 22:01:00,
2013-04-23 18:06:00,70.8,34.2,30.02,SW,231,1.0,4.0,26,0.00,,---,0.00,VWS V13.01,2013-04-23 22:06:00,
2013-04-23 18:11:00,71.2,33.6,30.02,WSW,238,4.0,6.0,25,0.00,,---,0.00,VWS V13.01,2013-04-23 22:11:00,
2013-04-23 18:16:00,71.2,34.6,30.02,SSW,213,4.0,6.0,26,0.00,,---,0.00,VWS V13.01,2013-04-23 22:16:00,
2013-04-23 18:21:00,71.2,33.6,30.03,WSW,248,1.0,6.0,25,0.00,,---,0.00,VWS V13.01,2013-04-23 22:21:00,
2013-04-23 18:26:00,71.0,33.4,30.02,WNW,282,1.0,6.0,25,0.00,,---,0.00,VWS V13.01,2013-04-23 22:26:00,
2013-04-23 18:31:00,70.7,33.2,30.02,WNW,290,0.0,1.0,25,0.00,,---,0.00,VWS V13.01,2013-04-23 22:31:00,
2013-04-23 18:36:00,70.3,33.8,30.02,WSW,252,2.0,5.0,26,0.00,,---,0.00,VWS V13.01,2013-04-23 22:36:00,
2013-04-23 18:41:00,69.7,33.3,30.02,West,273,2.0,5.0,26,0.00,,---,0.00,VWS V13.01,2013-04-23 22:41:00,
2013-04-23 18:46:00,69.3,33.9,30.03,WNW,288,2.0,5.0,27,0.00,,---,0.00,VWS V13.01,2013-04-23 22:46:00,
2013-04-23 18:51:00,69.0,33.7,30.02,WSW,240,1.0,5.0,27,0.00,,---,0.00,VWS V13.01,2013-04-23 22:51:00,
2013-04-23 18:56:00,68.7,35.2,30.03,WSW,241,0.0,5.0,29,0.00,,---,0.00,VWS V13.01,2013-04-23 22:56:00,
2013-04-23 19:01:00,68.5,33.2,30.03,WSW,241,0.0,2.0,27,0.00,,---,0.00,VWS V13.01,2013-04-23 23:01:00,
2013-04-23 19:06:00,68.3,34.0,30.03,WSW,237,3.0,4.0,28,0.00,,---,0.00,VWS V13.01,2013-04-23 23:06:00,
2013-04-23 19:11:00,68.0,34.6,30.03,SSW,208,2.0,5.0,29,0.00,,---,0.00,VWS V13.01,2013-04-23 23:11:00,
2013-04-23 19:16:00,67.7,33.5,30.02,SSW,208,1.0,5.0,28,0.00,,---,0.00,VWS V13.01,2013-04-23 23:16:00,
2013-04-23 19:21:00,67.5,33.3,30.02,SSW,208,0.0,5.0,28,0.00,,---,0.00,VWS V13.01,2013-04-23 23:21:00,
2013-04-23 19:26:00,67.3,34.8,30.02,SSW,208,1.0,5.0,30,0.00,,---,0.00,VWS V13.01,2013-04-23 23:26:00,
2013-04-23 19:31:00,67.0,34.6,30.02,SSW,208,3.0,3.0,30,0.00,,---,0.00,VWS V13.01,2013-04-23 23:31:00,
2013-04-23 19:36:00,66.8,33.5,30.02,SSW,208,1.0,3.0,29,0.00,,---,0.00,VWS V13.01,2013-04-23 23:36:00,
2013-04-23 19:41:00,66.6,34.2,30.02,SSW,208,0.0,3.0,30,0.00,,---,0.00,VWS V13.01,2013-04-23 23:41:00,
2013-04-23 19:46:00,66.3,34.8,30.02,SSW,208,0.0,3.0,31,0.00,,---,0.00,VWS V13.01,2013-04-23 23:46:00,
2013-04-23 19:51:00,65.9,34.4,30.02,SSW,208,1.0,3.0,31,0.00,,---,0.00,VWS V13.01,2013-04-23 23:51:00,
2013-04-23 19:56:00,65.4,34.8,30.01,South,183,0.0,3.0,32,0.00,,---,0.00,VWS V13.01,2013-04-23 23:56:00,
2013-04-23 20:01:00,65.0,36.0,30.01,SSE,166,1.0,2.0,34,0.00,,---,0.00,VWS V13.01,2013-04-24 00:01:00,
2013-04-23 20:06:00,64.5,36.3,30.01,East,92,1.0,5.0,35,0.00,,---,0.00,VWS V13.01,2013-04-24 00:06:00,
2013-04-23 20:11:00,64.1,37.3,30.01,East,81,1.0,7.0,37,0.00,,---,0.00,VWS V13.01,2013-04-24 00:11:00,
2013-04-23 20:16:00,63.9,37.8,30.01,ESE,103,8.0,9.0,38,0.00,,---,0.00,VWS V13.01,2013-04-24 00:16:00,
2013-04-23 20:21:00,63.7,38.3,30.01,ENE,69,4.0,9.0,39,0.00,,---,0.00,VWS V13.01,2013-04-24 00:21:00,
2013-04-23 20:26:00,63.4,38.7,30.01,ESE,121,2.0,9.0,40,0.00,,---,0.00,VWS V13.01,2013-04-24 00:26:00,
2013-04-23 20:31:00,63.1,39.0,30.01,ESE,117,2.0,6.0,41,0.00,,---,0.00,VWS V13.01,2013-04-24 00:31:00,
2013-04-23 20:36:00,62.9,38.9,30.01,ESE,107,8.0,9.0,41,0.00,,---,0.00,VWS V13.01,2013-04-24 00:36:00,
2013-04-23 20:41:00,62.6,39.2,30.01,East,85,2.0,9.0,42,0.00,,---,0.00,VWS V13.01,2013-04-24 00:41:00,
2013-04-23 20:46:00,62.3,38.9,30.01,SE,125,5.0,9.0,42,0.00,,---,0.00,VWS V13.01,2013-04-24 00:46:00,
2013-04-23 20:51:00,62.1,38.8,30.01,ESE,108,3.0,9.0,42,0.00,,---,0.00,VWS V13.01,2013-04-24 00:51:00,
2013-04-23 20:56:00,62.0,39.3,30.01,South,178,1.0,9.0,43,0.00,,---,0.00,VWS V13.01,2013-04-24 00:56:00,
2013-04-23 21:01:00,61.7,39.0,30.01,East,93,2.0,5.0,43,0.00,,---,0.00,VWS V13.01,2013-04-24 01:01:00,
2013-04-23 21:06:00,61.5,39.4,30.01,ESE,117,0.0,7.0,44,0.00,,---,0.00,VWS V13.01,2013-04-24 01:06:00,
2013-04-23 21:11:00,61.2,39.1,30.01,SSE,150,4.0,8.0,44,0.00,,---,0.00,VWS V13.01,2013-04-24 01:11:00,
2013-04-23 21:16:00,61.0,39.5,30.01,ESE,104,3.0,8.0,45,0.00,,---,0.00,VWS V13.01,2013-04-24 01:16:00,
2013-04-23 21:21:00,60.8,39.3,30.01,SSE,154,8.0,11.0,45,0.00,,---,0.00,VWS V13.01,2013-04-24 01:21:00,
2013-04-23 21:26:00,60.6,39.7,30.01,SSE,149,2.0,11.0,46,0.00,,---,0.00,VWS V13.01,2013-04-24 01:26:00,
2013-04-23 21:31:00,60.4,39.5,30.01,SE,128,5.0,9.0,46,0.00,,---,0.00,VWS V13.01,2013-04-24 01:31:00,
2013-04-23 21:36:00,60.3,40.0,30.01,SSE,153,6.0,9.0,47,0.00,,---,0.00,VWS V13.01,2013-04-24 01:36:00,
2013-04-23 21:41:00,60.0,39.7,30.00,SE,143,7.0,9.0,47,0.00,,---,0.00,VWS V13.01,2013-04-24 01:41:00,
2013-04-23 21:46:00,59.7,40.0,30.00,ESE,118,4.0,10.0,48,0.00,,---,0.00,VWS V13.01,2013-04-24 01:46:00,
2013-04-23 21:51:00,59.4,40.2,30.00,East,80,2.0,11.0,49,0.00,,---,0.00,VWS V13.01,2013-04-24 01:51:00,
2013-04-23 21:56:00,59.3,40.2,30.00,SSE,150,9.0,15.0,49,0.00,,---,0.00,VWS V13.01,2013-04-24 01:56:00,
2013-04-23 22:01:00,59.1,40.5,30.00,SSE,150,1.0,10.0,50,0.00,,---,0.00,VWS V13.01,2013-04-24 02:01:00,
2013-04-23 22:06:00,58.9,40.3,30.00,SE,146,2.0,10.0,50,0.00,,---,0.00,VWS V13.01,2013-04-24 02:06:00,
2013-04-23 22:11:00,58.6,40.5,29.99,SSE,158,4.0,13.0,51,0.00,,---,0.00,VWS V13.01,2013-04-24 02:11:00,
2013-04-23 22:16:00,58.3,40.3,29.99,SSE,155,9.0,13.0,51,0.00,,---,0.00,VWS V13.01,2013-04-24 02:16:00,
2013-04-23 22:21:00,58.1,40.6,30.00,SE,132,6.0,13.0,52,0.00,,---,0.00,VWS V13.01,2013-04-24 02:21:00,
2013-04-23 22:26:00,57.9,40.9,30.00,SE,129,1.0,13.0,53,0.00,,---,0.00,VWS V13.01,2013-04-24 02:26:00,
2013-04-23 22:31:00,57.7,40.7,30.00,South,191,4.0,7.0,53,0.00,,---,0.00,VWS V13.01,2013-04-24 02:31:00,
2013-04-23 22:36:00,57.4,40.4,30.00,SW,234,5.0,8.0,53,0.00,,---,0.00,VWS V13.01,2013-04-24 02:36:00,
2013-04-23 22:41:00,57.2,40.7,30.00,SE,126,7.0,11.0,54,0.00,,---,0.00,VWS V13.01,2013-04-24 02:41:00,
2013-04-23 22:46:00,57.1,40.6,30.00,SSE,158,6.0,12.0,54,0.00,,---,0.00,VWS V13.01,2013-04-24 02:46:00,
2013-04-23 22:51:00,56.9,40.9,30.00,ESE,123,7.0,15.0,55,0.00,,---,0.00,VWS V13.01,2013-04-24 02:51:00,
2013-04-23 22:56:00,56.7,40.7,30.00,ESE,117,4.0,15.0,55,0.00,,---,0.00,VWS V13.01,2013-04-24 02:56:00,
2013-04-23 23:01:00,56.6,41.1,29.99,East,94,2.0,9.0,56,0.00,,---,0.00,VWS V13.01,2013-04-24 03:01:00,
2013-04-23 23:06:00,56.3,40.8,29.99,SE,124,2.0,11.0,56,0.00,,---,0.00,VWS V13.01,2013-04-24 03:06:00,
2013-04-23 23:11:00,56.0,40.5,29.99,ESE,109,9.0,12.0,56,0.00,,---,0.00,VWS V13.01,2013-04-24 03:11:00,
2013-04-23 23:16:00,55.9,40.9,29.99,SE,130,11.0,15.0,57,0.00,,---,0.00,VWS V13.01,2013-04-24 03:16:00,
2013-04-23 23:21:00,55.9,40.9,29.99,SE,137,7.0,15.0,57,0.00,,---,0.00,VWS V13.01,2013-04-24 03:21:00,
2013-04-23 23:26:00,55.9,40.9,29.99,ESE,117,4.0,15.0,57,0.00,,---,0.00,VWS V13.01,2013-04-24 03:26:00,
2013-04-23 23:31:00,55.8,40.8,29.99,ESE,106,3.0,9.0,57,0.00,,---,0.00,VWS V13.01,2013-04-24 03:31:00,
2013-04-23 23:37:00,55.6,40.6,29.98,SE,136,5.0,13.0,57,0.00,,---,0.00,VWS V13.01,2013-04-24 03:37:00,
2013-04-23 23:42:00,55.5,40.5,29.98,SE,128,11.0,13.0,57,0.00,,---,0.00,VWS V13.01,2013-04-24 03:42:00,
2013-04-23 23:47:00,55.3,40.8,29.98,SSE,147,7.0,13.0,58,0.00,,---,0.00,VWS V13.01,2013-04-24 03:47:00,
2013-04-23 23:52:00,55.1,40.6,29.98,ESE,112,5.0,13.0,58,0.00,,---,0.00,VWS V13.01,2013-04-24 03:52:00,
2013-04-23 23:57:00,55.1,41.0,29.98,South,182,5.0,13.0,59,0.00,,---,0.00,VWS V13.01,2013-04-24 03:57:00,